Date,TemperatureHighF,TemperatureAvgF,TemperatureLowF,DewpointHighF,DewpointAvgF,DewpointLowF,HumidityHigh,HumidityAvg,HumidityLow,PressureMaxIn,PressureMinIn,WindSpeedMaxMPH,WindSpeedAvgMPH,GustSpeedMaxMPH,PrecipitationSumIn
2013-1-1,37,30,26,36,30,26,100,98,96,30.51,30.37,5,1,8,0.00
2013-1-2,47,34,27,34,27,22,99,78,42,30.37,30.20,13,2,20,0.01
2013-1-3,33,28,26,27,25,23,94,87,71,30.21,30.13,7,2,7,0.00
2013-1-4,50,42,36,46,41,36,99,96,85,30.32,30.17,3,0,12,0.01
2013-1-5,44,41,38,39,37,35,99,87,77,30.20,30.10,4,1,13,0.10
2013-1-6,45,41,38,41,40,38,98,94,84,30.18,30.00,3,1,15,0.31
2013-1-7,49,44,40,48,44,39,99,98,95,30.16,29.83,5,1,16,0.70
2013-1-8,49,42,40,48,42,40,100,99,99,30.16,29.80,11,1,15,0.28
2013-1-9,50,37,32,49,36,32,99,98,95,29.95,29.67,10,1,30,1.51
2013-1-10,36,32,28,36,32,28,100,99,99,30.12,29.94,5,0,5,0.14
2013-1-11,35,28,26,33,28,26,99,98,93,30.34,30.11,4,0,8,0.00
2013-1-12,36,27,22,31,25,22,98,93,73,30.46,30.33,7,1,8,0.01
2013-1-13,34,26,20,29,25,19,97,93,81,30.51,30.45,4,0,4,0.01
2013-1-14,33,31,30,33,31,28,99,97,95,30.58,30.48,5,0,5,0.00
2013-1-15,42,34,27,38,32,27,99,95,77,30.71,30.58,4,0,5,0.01
2013-1-16,34,26,22,32,26,22,99,98,94,30.70,30.62,4,0,4,0.01
2013-1-17,35,30,27,34,30,26,99,98,98,30.54,30.35,7,1,8,0.00
2013-1-18,31,29,23,31,29,23,99,99,98,30.36,30.27,6,0,7,0.00
2013-1-19,32,30,27,32,29,26,100,99,98,30.40,30.35,4,0,4,0.00
2013-1-20,33,30,27,33,30,26,100,99,98,30.41,30.28,4,0,5,0.01
2013-1-21,30,29,28,30,29,28,99,99,99,30.29,30.23,2,0,3,0.00
2013-1-22,38,29,23,36,29,22,100,98,91,30.17,29.92,3,0,6,0.00
2013-1-23,41,37,33,40,37,33,100,99,97,30.14,29.85,7,1,28,0.47
2013-1-24,45,41,38,42,39,37,100,95,78,30.22,30.06,5,1,11,0.28
2013-1-25,52,46,40,47,44,39,100,92,79,30.07,29.93,6,1,11,0.02
2013-1-31,48,46,44,47,45,44,100,98,94,30.38,30.31,4,1,11,0.10
2013-2-1,46,43,42,45,43,42,100,99,96,30.41,30.33,3,0,4,0.06
2013-2-2,40,35,31,40,35,31,100,100,99,30.40,30.27,5,0,8,0.00
2013-2-3,48,42,35,45,41,35,100,98,89,30.31,30.21,3,0,9,0.10
2013-2-4,49,45,43,45,43,42,99,94,83,30.21,29.88,4,0,11,0.01
2013-2-5,50,46,43,45,43,41,97,90,75,29.93,29.83,10,4,25,0.12
2013-2-6,48,45,43,42,41,39,94,86,73,30.04,29.79,15,2,18,0.05
2013-2-7,49,42,31,42,38,30,98,86,65,30.20,29.81,16,2,21,0.23
2013-2-8,43,36,28,39,34,27,99,94,84,30.31,30.19,3,0,3,0.01
2013-2-9,43,40,38,42,39,37,99,97,95,30.35,30.26,2,0,4,0.07
2013-2-10,45,36,31,41,36,30,100,97,83,30.39,30.34,7,1,8,0.00
2013-2-11,42,40,38,41,39,38,98,97,95,30.36,30.33,4,0,7,0.04
2013-2-12,48,45,40,46,43,40,99,95,88,30.41,30.28,5,2,14,0.01
2013-2-13,48,45,43,46,43,42,98,93,86,30.45,30.30,6,1,13,0.08
2013-2-14,48,44,41,44,42,41,98,94,83,30.57,30.50,8,1,8,0.07
2013-2-15,51,42,33,46,40,33,100,95,82,30.55,30.18,7,1,10,0.00
2013-2-16,45,41,34,45,40,34,100,95,82,30.20,30.13,7,1,17,0.59
2013-2-17,44,40,35,40,38,34,97,94,84,30.25,30.13,3,0,9,0.05
2013-2-18,45,39,32,39,36,31,99,90,76,30.12,29.77,4,0,10,0.01
2013-2-19,50,40,32,39,36,31,100,85,57,30.02,29.75,13,2,14,0.00
2013-2-20,45,37,30,40,36,30,98,94,79,30.05,30.00,8,1,12,0.01
2013-2-21,42,40,37,41,39,36,100,96,90,30.08,30.01,10,2,13,0.08
2013-2-22,46,40,34,42,38,33,98,93,83,30.05,29.67,21,4,25,0.54
2013-2-23,46,40,35,40,37,34,99,91,71,30.38,29.90,15,2,17,0.46
2013-2-24,46,42,37,40,38,36,96,85,74,30.39,29.96,14,3,21,0.01
2013-2-25,50,43,40,41,37,31,96,80,51,30.31,29.90,22,4,24,0.11
2013-2-26,47,41,32,38,35,31,97,78,59,30.36,30.20,13,2,18,0.03
2013-2-27,51,44,40,42,39,35,96,85,56,30.31,30.21,10,2,13,0.05
2013-2-28,52,45,40,50,44,39,99,97,94,30.31,30.19,7,2,19,0.35
2013-3-1,57,54,52,51,50,50,95,87,79,30.34,30.27,19,7,28,0.01
2013-3-2,56,46,38,49,42,36,97,89,73,30.27,30.07,15,3,22,0.33
2013-3-3,47,39,31,41,36,30,98,90,61,30.32,30.19,13,1,15,0.15
2013-3-4,34,29,27,33,29,27,99,98,97,30.32,30.24,2,0,3,0.00
2013-3-5,53,43,35,40,35,30,89,74,47,29.95,29.74,7,2,15,0.00
2013-3-6,43,40,36,42,39,35,97,95,89,29.90,29.59,4,1,8,0.44
2013-3-7,49,40,33,45,39,32,98,96,86,30.11,29.91,3,1,11,0.27
2013-3-8,49,36,29,44,35,29,99,95,79,30.14,30.09,10,2,11,0.01
2013-3-9,52,39,29,44,36,28,99,89,67,30.50,30.25,7,2,11,0.01
2013-3-10,47,40,33,40,38,32,98,90,72,30.51,30.44,4,1,9,0.00
2013-3-11,53,44,34,45,40,34,99,87,63,30.46,30.18,5,1,13,0.01
2013-3-12,54,51,47,50,48,44,96,90,79,30.18,30.05,7,3,18,0.45
2013-3-13,53,51,50,51,50,49,99,94,88,30.20,30.10,5,2,15,0.34
2013-3-14,53,51,48,51,48,45,98,92,82,30.14,30.03,10,2,19,0.01
2013-3-15,58,52,48,50,48,45,96,86,72,30.21,30.13,11,2,13,0.01
2013-3-16,51,44,35,47,42,34,97,92,77,30.14,29.88,20,3,24,0.39
2013-3-17,46,40,36,40,37,34,99,89,68,30.19,29.95,16,2,17,0.17
2013-3-18,50,42,35,41,36,29,98,79,48,30.25,30.11,20,4,24,0.08
2013-3-19,55,41,30,40,33,27,98,78,34,30.25,29.84,20,2,23,0.01
2013-3-20,52,47,43,48,44,41,96,90,70,29.64,29.39,18,5,34,0.58
2013-3-21,44,39,34,41,36,33,98,89,74,30.21,30.02,10,3,17,0.09
2013-3-22,45,37,31,37,33,28,98,87,54,30.39,30.21,9,2,15,0.22
2013-3-23,48,38,30,35,31,29,97,78,47,30.42,30.31,5,2,9,0.00
2013-3-24,57,40,29,38,32,27,97,78,33,30.32,30.13,6,1,15,0.01
2013-3-25,59,44,29,38,33,28,100,71,41,30.15,29.94,8,2,13,0.00
2013-3-26,56,48,36,44,41,34,93,77,58,30.02,29.96,7,2,11,0.00
2013-3-27,56,47,40,47,43,39,100,85,66,30.00,29.94,7,1,8,0.00
2013-3-28,60,49,38,50,44,38,98,85,61,30.15,30.00,12,2,13,0.00
2013-3-29,60,49,38,50,44,36,99,85,61,30.25,30.15,11,2,12,0.01
2013-3-30,67,49,35,52,43,34,98,82,44,30.27,30.08,10,2,11,0.02
2013-3-31,64,50,36,52,45,35,98,84,62,30.09,29.91,8,2,10,0.00
2013-4-1,47,42,38,46,41,37,100,97,94,30.08,29.97,3,0,3,0.00
2013-4-2,54,52,48,49,48,46,95,86,78,30.21,30.15,7,2,13,0.00
2013-4-3,61,52,45,50,47,44,97,85,63,30.19,29.95,7,2,10,0.00
2013-4-4,56,52,47,54,50,46,96,92,85,29.95,29.64,5,1,15,0.29
2013-4-5,57,52,48,51,49,46,96,88,73,29.86,29.73,13,5,29,0.54
2013-4-6,52,48,45,47,44,41,95,85,76,29.92,29.70,13,4,24,0.21
2013-4-7,46,43,40,44,41,38,98,94,84,29.89,29.50,16,2,20,1.10
2013-4-8,43,42,42,42,42,42,99,98,98,30.02,29.90,4,0,6,0.67
2013-4-9,55,49,42,46,44,42,98,84,68,30.36,30.19,5,1,12,0.00
2013-4-10,54,51,48,50,46,42,95,81,69,30.25,29.92,10,4,23,0.14
2013-4-11,52,46,39,44,41,37,97,83,66,30.31,30.21,10,2,17,0.20
2013-4-12,48,42,36,42,40,35,97,93,75,30.20,29.69,17,2,21,0.30
2013-4-13,47,42,37,45,39,33,98,91,73,30.00,29.75,13,2,18,0.28
2013-4-14,52,43,37,43,39,34,99,85,57,30.02,29.92,14,2,15,0.08
2013-4-15,52,43,35,43,40,35,98,89,65,30.19,29.95,16,2,20,0.13
2013-4-16,55,43,31,43,37,30,99,83,49,30.41,30.19,13,2,16,0.04
2013-4-17,57,46,33,46,39,33,99,78,45,30.47,30.40,13,2,15,0.01
2013-4-18,50,45,43,44,42,40,94,87,77,30.46,30.39,8,1,9,0.01
2013-4-19,52,50,47,51,49,47,98,96,93,30.22,30.06,8,2,13,0.51
2013-4-20,54,48,46,51,47,45,98,94,82,30.28,30.20,7,1,11,0.33
2013-4-21,54,46,40,46,43,38,98,89,67,30.37,30.24,7,2,14,0.34
2013-4-22,60,45,30,43,36,28,99,74,35,30.53,30.38,12,3,17,0.00
2013-4-23,61,47,32,42,37,31,97,73,40,30.44,30.25,12,3,19,0.00
2013-4-24,67,51,35,46,40,34,97,71,30,30.34,30.08,9,2,14,0.00
2013-4-25,67,52,38,47,41,37,96,71,40,30.10,30.05,10,2,11,0.00
2013-4-26,64,53,41,53,48,40,98,82,65,30.25,30.14,8,2,13,0.00
2013-4-27,55,52,49,49,46,40,97,80,58,30.23,30.15,7,2,17,0.22
2013-4-28,54,50,46,49,46,43,97,87,69,30.22,29.95,6,2,21,0.22
2013-4-29,55,48,43,46,36,29,94,62,39,30.16,29.92,23,7,25,0.10
2013-4-30,55,45,36,41,35,24,95,71,33,30.46,30.16,18,4,22,0.16
2013-5-1,64,47,30,43,36,29,98,70,37,30.59,30.46,13,3,16,0.00
2013-5-2,65,52,37,48,42,36,97,72,43,30.56,30.37,15,2,17,0.00
2013-5-3,58,45,38,48,42,37,98,89,66,30.40,30.37,10,1,11,0.00
2013-5-4,76,59,40,56,46,39,98,68,31,30.25,30.01,8,2,20,0.00
2013-5-5,82,66,44,57,52,43,96,62,35,30.01,29.77,13,3,14,0.00
2013-5-6,77,63,47,58,52,45,96,71,41,29.85,29.74,10,2,11,0.00
2013-5-7,69,57,48,58,52,46,97,83,61,29.99,29.81,10,3,11,0.00
2013-5-8,64,55,47,56,52,46,98,88,71,30.15,29.99,7,1,8,0.00
2013-5-9,65,54,46,57,51,45,100,89,64,30.23,30.12,12,3,14,0.00
2013-5-10,51,47,44,49,46,44,98,97,93,30.21,30.17,3,0,3,0.01
2013-5-11,81,63,51,59,54,49,97,75,41,30.17,29.99,9,2,15,0.00
2013-5-12,69,63,57,59,57,53,97,82,62,30.08,29.99,13,3,21,0.16
2013-5-13,62,55,47,59,51,44,95,85,65,30.19,29.93,29,4,32,0.25
2013-5-14,63,54,46,46,44,40,91,72,46,30.23,30.12,15,2,22,0.00
2013-5-15,61,51,45,51,49,43,97,91,64,30.13,30.01,19,2,21,0.06
2013-5-16,52,51,51,51,51,50,98,97,97,30.03,29.98,2,0,4,0.01
2013-5-18,60,56,51,51,49,46,90,78,60,30.27,30.05,8,2,15,0.00
2013-5-19,63,55,51,53,50,48,96,85,65,30.41,30.27,8,3,13,0.05
2013-5-20,66,53,42,54,48,41,98,84,62,30.35,29.92,12,3,17,0.00
2013-5-21,53,49,46,50,47,45,96,93,84,29.91,29.79,7,1,13,0.62
2013-5-22,51,47,44,49,46,43,98,94,88,29.95,29.86,4,1,9,0.13
2013-5-23,58,49,43,49,46,42,99,90,64,30.02,29.93,8,1,17,0.04
2013-5-24,63,54,42,50,47,41,98,77,60,30.05,29.98,10,1,11,0.00
2013-5-25,63,55,49,49,48,46,96,78,56,30.05,29.98,11,2,16,0.02
2013-5-26,63,55,49,57,51,47,96,89,74,30.00,29.95,9,1,10,0.11
2013-5-27,60,55,51,56,53,50,97,91,78,29.96,29.72,11,1,12,0.09
2013-5-28,62,55,52,53,51,50,95,87,65,29.88,29.77,9,2,13,0.01
2013-5-29,54,52,50,51,50,49,97,93,86,29.97,29.68,7,2,12,0.37
2013-5-30,61,54,48,51,49,47,98,84,63,30.24,29.97,7,2,14,0.05
2013-5-31,53,52,50,49,48,48,93,88,84,30.31,30.25,3,1,9,0.00
2013-6-17,63,63,63,56,56,56,77,77,77,30.03,30.03,4,4,6,0.00
2013-6-23,67,67,67,61,61,61,81,81,81,29.64,29.64,0,0,0,0.00
2013-6-25,60,59,58,59,58,57,97,96,93,29.85,29.78,3,1,9,0.66
2013-6-26,72,62,55,62,58,54,99,87,63,30.07,29.84,13,2,20,0.02
2013-6-27,72,63,58,65,60,57,98,90,73,30.18,30.05,5,0,9,0.07
2013-6-28,82,70,60,69,64,60,97,84,54,30.19,30.03,9,2,13,0.00
2013-6-29,80,70,63,69,64,60,94,81,64,30.09,29.98,7,2,10,0.00
2013-6-30,80,65,58,68,61,58,98,87,66,30.01,29.91,8,1,9,0.00
2013-11-11,40,40,40,39,39,39,99,99,99,30.16,30.16,0,0,1,0.00